Location: Beverley
(50.2667°N, 107.9667°W)
Time: 12:13:19
(UTC+00:00)

RS-15 - Visible Passes

Search period start: 28 June 2022 00:00
Search period end: 08 July 2022 00:00
Orbit: 1881 x 2163 km, 64.8° (Epoch: 27 June)

Date Brightness Start Highest point End Pass type
(mag) Time Alt. Az. Time Alt. Az. Time Alt. Az.
28 Jun 8.6 05:41:37 10° NW 05:53:58 63° NE 06:05:59 10° ESE visible
28 Jun 8.3 07:54:41 10° NW 08:06:36 58° WSW 08:16:53 14° S visible
28 Jun 9.4 10:10:05 10° WNW 10:16:07 15° W 10:22:06 10° WSW visible
29 Jun 8.8 05:05:19 10° NW 05:17:30 56° NNE 05:29:24 10° ESE visible
29 Jun 8.2 07:18:30 10° NW 07:30:45 71° WSW 07:41:12 15° SSE visible
29 Jun 9.2 09:32:43 10° NW 09:40:52 21° W 09:48:52 10° SW visible
30 Jun 8.9 04:28:57 10° NW 04:40:57 50° NNE 04:52:43 10° E visible
30 Jun 8.2 06:42:20 10° NW 06:54:46 83° SW 07:05:38 14° SSE visible
30 Jun 9.0 08:55:55 10° NW 09:05:30 28° W 09:13:19 14° SSW visible
01 Jul 9.1 03:52:30 10° NW 04:04:18 46° NNE 04:15:56 10° E visible
01 Jul 8.2 06:06:10 10° NW 06:18:41 84° NE 06:30:10 12° SE visible
01 Jul 8.7 08:19:25 10° NW 08:30:01 36° WSW 08:37:52 18° SSW visible
02 Jul 8.4 05:29:59 10° NW 05:42:28 73° NE 05:54:32 10° SE visible
02 Jul 8.5 07:43:04 10° NW 07:54:25 46° WSW 08:02:29 20° S visible
03 Jul 8.5 04:53:45 10° NW 05:06:08 64° NE 05:18:09 10° ESE visible
03 Jul 8.3 07:06:49 10° NW 07:18:41 57° WSW 07:27:11 21° S visible
03 Jul 9.4 09:22:29 10° WNW 09:28:06 15° W 09:33:39 10° WSW visible
04 Jul 8.7 04:17:29 10° NW 04:29:41 56° NNE 04:41:36 10° ESE visible
04 Jul 8.2 06:30:38 10° NW 06:42:51 69° WSW 06:51:56 20° SSE visible
04 Jul 9.3 08:44:58 10° NW 08:52:53 20° W 08:59:38 12° SW visible
05 Jul 8.2 05:54:28 10° NW 06:06:53 81° SW 06:16:44 18° SSE visible
05 Jul 9.1 08:08:07 10° NW 08:17:31 27° W 08:24:27 16° SW visible
06 Jul 8.2 05:18:18 10° NW 05:30:48 86° NE 05:41:35 15° SE visible
06 Jul 8.8 07:31:35 10° NW 07:42:03 35° WSW 07:49:19 19° SSW visible
07 Jul 8.3 04:42:07 10° NW 04:54:36 75° NE 05:06:29 11° SE visible
07 Jul 8.6 06:55:13 10° NW 07:06:28 44° WSW 07:14:13 21° SSW visible
